OPS 8180 (STP RADSAT)

Satellite information

Favourite Embed

Satellite Type and Status

PAYLOADIN ORBIT

Key statistics

Satellite OPS 8180 (STP RADSAT) at a glance.

Uptime

19272

Days in orbit

Revolutions

≈ 14.7

Per day

Orbit

SSO

Sun Synchronous Orbit

Inclination

98.6

Latest

Satellite identification and parameters

Extended collection of information and parameters for OPS 8180 (STP RADSAT).

Object identification

Identified? True

Debris? False

Object name: OPS 8180 (STP RADSAT)

International designator: 1972-076B

Object number (NORAD): 6217

Object ID (CCSDS): 6217

Country: UNITED STATES OF AMERICA (US)

Current information (Y/N): Y

RCS size: LARGE

Orbital parameters

Period: 97.94 minutes

Inclination: 98.6038 deg

SMA: 7038.289 km

Apoapsis: 667.164 km

Periapsis: 653.144 km

RAAN: 147.8169 deg

Eccentricy: 0.000996

Argument of periapsis: 31.5612 deg

Mean anomaly: 328.6188 deg

Mean motion: 14.70286922 rev/day

Mean motion (dot): 0.00000535 rev/day2

B* drag term: 0.00009772 1/REarth

Two-line elements (TLE)

Creation date: July 8, 2025, 2:27 a.m.

Reference frame: TEME

Reference center: EARTH

Epoch: July 7, 2025, 9:35 p.m. UTC

TLE line 0: 0 OPS 8180 (STP RADSAT)

TLE line 1: 1 06217U 72076B 25188.89989546 .00000535 00000-0 97720-4 0 9992

TLE line 2: 2 06217 98.6038 147.8169 0009960 31.5612 328.6188 14.70286922788189

Live tracking on map

Real-time ground track for satellite OPS 8180 (STP RADSAT).

In-orbit conjunctions

There are no conjunctions computed for OPS 8180 (STP RADSAT), at the moment. Check back to stay up to date, as we update our databases every day.

Go to all conjunctions

Associated space launch

Cylindrical satellite used to calibrate optical and radar ground equipment.

OPS 8180 (STP RADSAT) was lifted into orbit during the mission ‘Atlas Burner 2 | Radcat’, on board a Atlas Burner 2 space rocket.

The launch took place on Oct. 2, 1972, 8:10 p.m. from 576A1.

For more information about the launch, click the button.

Launch to space Atlas Burner 2 | Radcat
Atlas Burner 2 | Radcat

Agency: N/A

Status: Launch Successful

Launch date: Oct. 2, 1972, 8:10 p.m. UTC

Rocket: Atlas Burner 2

Launch pad: 576A1

Location: Vandenberg SFB, CA, USA

...

Latest news about this satellite

There are no fresh news available about this satellite. Check back as we update our databases every day.


Newsletter sign-up

Weekly statistics, charts and insights to help you stay on top of the space industry.